Satellite-Ground Cal/Val Site Overpasses Predictions

Prediction of Satellite NPP Overpassing Cal/Val Site: Antarctic Dome C

Ground Cal/Val Site Location: Latitude: -75.10, Longitude: 123.35; Satellite-Ground Site NADIR distance within 100 km.

Table of predicted overpasses for the next 14.0 days since TLE Epoch: 1/12/2018
Interval Starting Time Ending Time Minimum Distance Time Minimum Distance (km)
1 01/13/2018 07:31:33 01/13/2018 07:32:03 01/13/2018 07:31:48 1.72
2 01/16/2018 14:54:59 01/16/2018 14:55:28 01/16/2018 14:55:13 21.61
3 01/17/2018 14:36:16 01/17/2018 14:36:30 01/17/2018 14:36:23 85.51
4 01/18/2018 07:37:48 01/18/2018 07:38:15 01/18/2018 07:38:02 37.26
5 01/19/2018 07:19:01 01/19/2018 07:19:21 01/19/2018 07:19:11 72.90
6 01/21/2018 15:01:14 01/21/2018 15:01:38 01/21/2018 15:01:26 58.40
7 01/22/2018 14:42:24 01/22/2018 14:42:49 01/22/2018 14:42:36 50.87
8 01/23/2018 07:44:04 01/23/2018 07:44:24 01/23/2018 07:44:14 72.14
9 01/24/2018 07:25:11 01/24/2018 07:25:38 01/24/2018 07:25:25 35.89


NCC Satellite Cal/Val Overpasses Prediction Service
